Envisat

operational
NORAD ID: 27386 Int'l Des: 2002-009 Owner: ESA Country: I-ESA
LEOCIRCULARRETROGRADESSO

Envisatについて

説明を読み込み中...

リアルタイム位置

3D地球を読み込み中...

次回通過

高度履歴

Altitude vs Time

uPlot chart will show altitude changes over time

軌道要素

1 27386U 02009A 26061.61082385 .00000156 00000-0 64460-4 0 9991
2 27386 98.3716 15.3772 0001350 84.9622 87.3021 14.39033784258151
Epoch: Mar 2, 2026 • Age: 29 hours

現在のステータス

高度 789.8 km
速度 7.46 km/s
衛星直下点 -74.53°S, 179.05°E
打ち上げ日 Mar 1, 2002
運用期間 24 years
タイプ other

技術仕様

分類 Payload
質量 8211.00 kg
乾燥質量 7911.00 kg
総質量 8211.00 kg
長さ 10.00 m
直径 4.50 m
スパン 26.00 m
形状 Box + Pan
製造者 ASTD
バスタイプ SPOT/PPF
フェーズステータス In Orbit
所有者/国 ESA/I-ESA

大規模コンステレーション

Loading constellations...